STARLINK-1272 (45386 NORAD) Tracking and Keplerian Element Data

This shows tracking and keplerian element data for the satellite.

Feedback or suggestion? Click here.




ElementValue
Catalog45386
NameSTARLINK-1272
Epoch Orbit175
Epoch Day188.91667824
Epoch Year2020
RAAN86.2295
Inclination53.0002
Eccentricity0.0001874
Argument of Perigee82.8213
Mean Anonmoly38.0065
Mean Motion14.99124989
Decay Rate-0.00044375
L11 45386U 20019AC 20188.91667824 -.00044375 00000-0 -36144-2 0 9995
L22 45386 53.0002 86.2295 0001874 82.8213 38.0065 14.99124989 1755

Live tracking and technical data element details for STARLINK-1272 (NORAD 45386). STARLINK-1272 can be tracked NOW for your location showing map with azimuth and elevation plus other details from your city location.

Track the satellite on the map from your city or location and see movement details for azimuth, elevation, latitude, longitude, range, height, and movement on the map or in text.







IsCatalogInMostPopularTable: catalog: 45386, numindb: 21
Update: records affected: 1



GetName: 45386 STARLINK-1272

Hit Count: updated at: Wed, 08 Jul 2020 05:40:47 GMT